DW3003 Weather Reports


time (UTC)temp
F
wind
direction
speed
knots
gust
knots
rain 1hr
in
rain 24hr
in
rain mn
in
humidity
%
barometer
mb
20260504232100 51 186 6.1 12.2 0.00 0.00 0.00 84 1011.7
20260504231558 52 203 6.1 12.2 0.00 0.00 0.00 83 1011.7
20260504231057 52 182 6.1 13.9 0.00 0.00 0.00 83 1011.8
20260504230557 52 181 7.0 13.9 0.00 0.00 0.00 83 1011.7
20260504230106 52 195 7.0 13.0 0.00 0.00 0.00 82 1011.8
20260504225557 52 175 6.1 12.2 0.00 0.00 0.00 82 1011.8
20260504225056 53 196 7.0 14.8 0.00 0.00 0.00 81 1011.8
20260504224604 53 163 7.0 15.6 0.00 0.00 0.00 81 1011.8
20260504224057 53 162 7.8 16.5 0.00 0.00 0.00 80 1011.9
20260504223557 53 183 7.8 16.5 0.00 0.00 0.00 80 1012.0
20260504223103 53 163 10.4 15.6 0.00 0.00 0.00 80 1011.9
20260504222558 53 162 7.8 13.9 0.00 0.00 0.00 79 1011.9
20260504222058 53 165 7.8 13.9 0.00 0.00 0.00 79 1011.9
20260504221603 53 163 7.8 13.0 0.00 0.00 0.00 79 1011.9
20260504221057 54 194 7.8 12.2 0.00 0.00 0.00 79 1012.0
20260504220557 54 161 7.0 12.2 0.00 0.00 0.00 79 1012.0
20260504220103 54 143 7.0 11.3 0.00 0.00 0.00 78 1011.9
20260504215600 53 160 6.1 13.9 0.00 0.00 0.00 79 1012.0
20260504215057 53 161 7.8 14.8 0.00 0.00 0.00 78 1012.1
20260504214558 54 142 6.1 14.8 0.00 0.00 0.00 78 1012.1
20260504214057 54 158 9.6 14.8 0.00 0.00 0.00 78 1012.0
20260504213557 54 152 8.7 14.8 0.00 0.00 0.00 78 1011.9
20260504213109 54 184 9.6 15.6 0.00 0.00 0.00 77 1011.9
20260504212557 54 152 9.6 15.6 0.00 0.00 0.00 78 1012.0
20260504212100 54 232 8.7 14.8 0.00 0.00 0.00 76 1012.0
20260504211607 54 164 8.7 15.6 0.00 0.00 0.00 76 1012.0
20260504211057 54 162 9.6 16.5 0.00 0.00 0.00 77 1012.0
20260504210600 54 171 10.4 16.5 0.00 0.00 0.00 76 1012.0
20260504210059 54 181 9.6 17.4 0.00 0.00 0.00 76 1012.0
20260504205558 54 211 9.6 17.4 0.00 0.00 0.00 77 1011.9
20260504205058 54 177 11.3 16.5 0.00 0.00 0.00 76 1012.0
20260504204604 54 186 9.6 19.1 0.00 0.00 0.00 76 1011.9
20260504204057 54 186 12.2 19.1 0.00 0.00 0.00 76 1011.9
20260504203600 55 156 10.4 17.4 0.00 0.00 0.00 75 1011.8
20260504203115 55 178 11.3 16.5 0.00 0.00 0.00 76 1011.8
20260504202557 55 184 11.3 20.9 0.00 0.00 0.00 76 1011.7
20260504202056 55 152 13.9 20.9 0.00 0.00 0.00 75 1011.7
20260504201601 54 150 12.2 20.0 0.00 0.00 0.00 75 1011.8
20260504201102 54 161 13.0 20.0 0.00 0.00 0.00 75 1011.9
20260504200558 55 182 13.0 20.0 0.00 0.00 0.00 74 1012.1
20260504200104 55 144 10.4 19.1 0.00 0.00 0.00 74 1012.2
20260504195558 55 172 12.2 19.1 0.00 0.00 0.00 74 1012.2
20260504195058 55 159 11.3 17.4 0.00 0.00 0.00 74 1012.1
20260504194557 55 161 12.2 20.0 0.00 0.00 0.00 74 1012.2
20260504194058 55 172 11.3 20.0 0.00 0.00 0.00 73 1012.3
20260504193558 55 170 13.0 20.0 0.00 0.00 0.00 73 1012.2
20260504193100 56 146 10.4 17.4 0.00 0.00 0.00 73 1012.3
20260504192559 56 163 10.4 16.5 0.00 0.00 0.00 72 1012.2
20260504192057 55 168 10.4 17.4 0.00 0.00 0.00 72 1012.2
20260504191611 56 178 10.4 20.0 0.00 0.00 0.00 72 1012.2
20260504191057 55 169 11.3 20.0 0.00 0.00 0.00 74 1012.4
20260504190559 55 193 13.9 20.0 0.00 0.00 0.00 73 1012.4
20260504190121 55 169 12.2 20.0 0.00 0.00 0.00 73 1012.5
20260504185557 55 160 13.0 20.0 0.00 0.00 0.00 75 1012.5
20260504185057 55 196 11.3 20.0 0.00 0.00 0.00 72 1012.6
20260504184605 55 161 10.4 24.3 0.00 0.00 0.00 74 1012.6
20260504184057 55 165 12.2 24.3 0.00 0.00 0.00 73 1012.8
20260504183600 55 163 13.9 21.7 0.00 0.00 0.00 73 1012.9
20260504183105 55 173 13.0 21.7 0.00 0.00 0.00 74 1012.8
20260504182556 55 157 11.3 21.7 0.00 0.00 0.00 73 1012.8
20260504182059 55 162 13.0 20.9 0.00 0.00 0.00 73 1012.8
20260504181600 55 181 12.2 20.0 0.00 0.00 0.00 73 1012.8
20260504181057 56 192 10.4 17.4 0.00 0.00 0.00 73 1012.9
20260504180557 55 178 10.4 20.0 0.00 0.00 0.00 73 1012.9
20260504180112 55 167 11.3 20.9 0.00 0.00 0.00 74 1013.0
20260504175559 55 183 12.2 20.9 0.00 0.02 0.00 74 1013.0
20260504175057 55 184 10.4 16.5 0.00 0.02 0.00 73 1013.1
20260504174557 56 157 9.6 16.5 0.00 0.02 0.00 73 1013.1
20260504174057 56 178 7.8 15.6 0.00 0.02 0.00 74 1013.3
20260504173555 56 160 7.8 17.4 0.00 0.02 0.00 74 1013.3
20260504173057 56 163 7.8 17.4 0.00 0.02 0.00 73 1013.4
20260504172555 55 191 9.6 15.6 0.00 0.02 0.00 73 1013.4
20260504172056 55 187 8.7 15.6 0.00 0.02 0.00 75 1013.5
20260504171557 56 165 7.0 14.8 0.00 0.02 0.00 76 1013.5
20260504171059 55 197 9.6 14.8 0.00 0.02 0.00 76 1013.5
20260504170556 55 205 9.6 18.2 0.00 0.02 0.00 76 1013.6
20260504151059 54 202 11.3 16.5 0.00 0.02 0.00 72 1014.3
20260504150557 54 184 7.8 19.1 0.00 0.02 0.00 72 1014.4
20260504141059 54 190 9.6 18.2 0.00 0.02 0.00 71 1014.6
20260504140556 55 157 7.8 17.4 0.00 0.02 0.00 70 1014.6
20260504130557 54 200 7.8 15.6 0.00 0.02 0.00 69 1015.0
20260504110558 51 186 7.0 12.2 0.00 0.02 0.00 74 1014.8
20260504100558 50 163 5.2 10.4 0.00 0.02 0.00 78 1014.5
20260504081556 50 188 5.2 11.3 0.00 0.02 0.00 74 1013.9
20260504081057 50 184 7.0 11.3 0.00 0.02 0.00 74 1013.9
20260504080557 50 206 6.1 11.3 0.00 0.02 0.00 74 1013.9
20260504050558 50 190 2.6 7.0 0.00 0.02 0.00 73 1013.2
20260504050105 50 184 3.5 7.8 0.00 0.02 0.00 74 1013.1
20260504045558 50 236 2.6 8.7 0.00 0.02 0.00 74 1013.2
20260504045059 51 214 4.3 8.7 0.00 0.02 0.00 73 1013.3
20260504044601 51 226 3.5 8.7 0.00 0.02 0.00 72 1013.3
20260504044059 51 230 3.5 12.2 0.00 0.02 0.00 71 1013.3
20260504043559 51 199 5.2 12.2 0.00 0.02 0.00 70 1013.2
20260504043059 51 188 6.1 10.4 0.00 0.02 0.00 71 1013.2
20260504042559 51 187 4.3 10.4 0.00 0.02 0.00 72 1013.1
20260504042059 51 184 5.2 10.4 0.00 0.02 0.00 72 1013.1
20260504041601 51 181 4.3 8.7 0.00 0.02 0.00 73 1013.1
20260504041056 50 150 4.3 8.7 0.00 0.02 0.00 74 1013.0
20260504040556 50 192 3.5 8.7 0.00 0.02 0.00 74 1013.0
20260504040057 50 193 3.5 8.7 0.00 0.02 0.00 74 1013.0
20260504035556 50 188 3.5 8.7 0.00 0.02 0.02 75 1013.1
20260504035056 49 180 1.7 5.2 0.00 0.02 0.02 76 1013.0
20260504034600 49 190 1.7 5.2 0.00 0.02 0.02 76 1013.1
20260504034059 49 204 0.9 6.1 0.00 0.02 0.02 74 1013.0
20260504033557 49 0 1.7 6.1 0.00 0.02 0.02 73 1013.0
20260504033057 49 199 1.7 7.0 0.00 0.02 0.02 73 1012.9
20260504032557 49 200 2.6 7.0 0.00 0.02 0.02 72 1012.9
20260504032058 49 196 3.5 8.7 0.00 0.02 0.02 72 1012.9
20260504031557 48 182 4.3 8.7 0.00 0.02 0.02 73 1012.9
20260504031056 47 174 0.0 3.5 0.00 0.02 0.02 73 1012.9
20260504030556 47 196 1.7 3.5 0.00 0.02 0.02 73 1012.8
20260504030056 46 199 0.9 2.6 0.00 0.02 0.02 72 1012.9
20260504025557 44 229 0.0 0.0 0.00 0.02 0.02 72 1012.9
20260504025059 43 0 0.0 0.0 0.00 0.02 0.02 70 1012.9
20260504024616 42 0 0.0 0.0 0.00 0.02 0.02 70 1012.8
20260504024056 42 0 0.0 0.0 0.00 0.02 0.02 69 1012.9
20260504023556 42 0 0.0 0.0 0.00 0.02 0.02 68 1012.9
20260504023058 42 0 0.0 0.0 0.00 0.02 0.02 67 1012.8
20260504022602 42 0 0.0 0.0 0.00 0.02 0.02 66 1012.7
20260504022059 42 0 0.0 0.0 0.00 0.02 0.02 66 1012.7
20260504021557 43 0 0.0 0.0 0.00 0.02 0.02 66 1012.7
20260504021102 43 0 0.0 0.0 0.00 0.02 0.02 66 1012.7
20260504020557 43 0 0.0 0.0 0.00 0.02 0.02 64 1012.8
20260504020057 43 0 0.0 0.0 0.00 0.02 0.02 64 1012.7
20260504015557 44 0 0.0 0.0 0.00 0.02 0.02 64 1012.7
20260504015057 44 0 0.0 0.0 0.00 0.02 0.02 63 1012.6
20260504014604 45 0 0.0 0.0 0.00 0.02 0.02 62 1012.7
20260504014058 45 0 0.0 0.0 0.00 0.02 0.02 64 1012.6
20260504013556 45 0 0.0 0.0 0.00 0.02 0.02 62 1012.5
20260504013058 46 0 0.0 0.0 0.00 0.02 0.02 62 1012.4
20260504012557 46 0 0.0 0.0 0.00 0.02 0.02 63 1012.4
20260504012058 47 0 0.0 0.9 0.00 0.02 0.02 63 1012.4
20260504011559 47 0 0.0 0.9 0.00 0.02 0.02 61 1012.3
20260504011058 47 0 0.0 0.0 0.00 0.02 0.02 59 1012.2
20260504010559 48 0 0.0 0.0 0.00 0.02 0.02 57 1012.2
20260504010105 48 0 0.0 0.0 0.00 0.02 0.02 56 1012.1
20260504005559 48 0 0.0 0.0 0.00 0.02 0.02 55 1012.1
20260504005059 48 0 0.0 0.0 0.00 0.02 0.02 49 1012.0
20260504004600 49 0 0.0 0.0 0.00 0.02 0.02 50 1011.9
20260504004058 49 0 0.0 0.0 0.00 0.02 0.02 45 1011.8
20260504003557 49 0 0.0 0.0 0.00 0.02 0.02 43 1011.8
20260504003100 50 0 0.0 0.0 0.00 0.02 0.02 44 1011.7
20260504002557 51 0 0.0 0.0 0.00 0.02 0.02 44 1011.6
20260504002057 51 0 0.0 0.0 0.00 0.02 0.02 39 1011.6
20260504001557 52 0 0.0 0.0 0.00 0.02 0.02 38 1011.6
20260504001057 52 0 0.0 0.0 0.00 0.02 0.02 38 1011.5
20260504000557 52 0 0.0 0.0 0.00 0.02 0.02 37 1011.5
20260504000139 53 0 0.0 0.0 0.00 0.02 0.02 38 1011.3
20260503235557 53 0 0.0 0.0 0.00 0.02 0.02 36 1011.3
20260503235056 53 0 0.0 0.0 0.00 0.02 0.02 36 1011.2
20260503234602 53 0 0.0 0.0 0.00 0.02 0.02 35 1011.1
20260503234101 54 0 0.0 3.5 0.00 0.02 0.02 35 1011.0
20260503233558 54 0 0.0 3.5 0.00 0.02 0.02 34 1011.1
20260503233101 54 0 0.0 4.3 0.00 0.02 0.02 35 1011.0
20260503232557 55 0 0.0 4.3 0.00 0.02 0.02 34 1011.0